Location: Unspecified
(41.5516°N, 88.1098°W)
Time: 20:36:20
(UTC-05:00)

Resurs 1-4 Rocket - Visible Passes

Search period start: 28 September 2016 00:00
Search period end: 08 October 2016 00:00
Orbit: 800 x 814 km, 98.4° (Epoch: 27 September)

Date Brightness Start Highest point End Pass type
(mag) Time Alt. Az. Time Alt. Az. Time Alt. Az.
28 Sep 4.1 03:06:47 10° NNE 03:09:10 25° NE 03:09:10 25° NE visible
28 Sep 3.5 04:47:12 10° NNW 04:50:15 23° NW 04:50:15 23° NW visible
29 Sep 4.6 02:42:43 10° NE 02:44:13 17° NE 02:44:13 17° NE visible
29 Sep 3.3 04:22:11 10° N 04:25:18 30° NNW 04:25:18 30° NNW visible
30 Sep 5.1 02:19:12 10° NE 02:19:16 10° NE 02:19:16 10° NE visible
30 Sep 3.3 03:57:24 10° N 04:00:21 33° N 04:00:21 33° N visible
01 Oct 3.7 03:32:49 10° NNE 03:35:23 29° NNE 03:35:23 29° NNE visible
01 Oct 3.9 05:14:26 10° NNW 05:16:27 14° NW 05:16:27 14° NW visible
02 Oct 4.3 03:08:27 10° NNE 03:10:25 22° NE 03:10:25 22° NE visible
02 Oct 3.7 04:48:56 10° NNW 04:51:30 21° NW 04:51:30 21° NW visible
03 Oct 4.7 02:44:21 10° NE 02:45:28 15° NE 02:45:28 15° NE visible
03 Oct 3.5 04:23:54 10° N 04:26:32 26° NNW 04:26:32 26° NNW visible
04 Oct 3.6 03:59:06 10° N 04:01:35 28° N 04:01:35 28° N visible
05 Oct 4.0 03:34:30 10° NNE 03:36:37 25° NNE 03:36:37 25° NNE visible
05 Oct 4.0 05:16:13 10° NNW 05:17:42 13° NW 05:17:42 13° NW visible
06 Oct 4.4 03:10:06 10° NNE 03:11:39 19° NNE 03:11:39 19° NNE visible
06 Oct 3.8 04:50:41 10° NNW 04:52:44 18° NNW 04:52:44 18° NNW visible
07 Oct 4.9 02:45:59 10° NE 02:46:42 13° NE 02:46:42 13° NE visible
07 Oct 3.7 04:25:37 10° N 04:27:47 22° NNW 04:27:47 22° NNW visible
